This is the latest recevied weather packets stored in our database for station/object KE8GJZ-1. If no packets are shown the sender has not sent any weather packets the latest 10 day(s).
| Time | Temp. | Humidity | Pressure | Rain* | Wind** | Luminosity | Snow |
|---|---|---|---|---|---|---|---|
| 1778140178 | 5° C | 70% | 1010.8 hPa | 0 mm | - | 0 W/m² | - |
| 1778139874 | 5° C | 72% | 1010.7 hPa | 0 mm | - | 0 W/m² | - |
| 1778139572 | 5° C | 73% | 1011 hPa | 0 mm | - | 0 W/m² | - |
| 1778139269 | 5° C | 73% | 1010.9 hPa | 0 mm | - | 0 W/m² | - |
| 1778138965 | 5° C | 72% | 1010.8 hPa | 0 mm | - | 0 W/m² | - |
| 1778138663 | 5° C | 73% | 1010.8 hPa | 0 mm | - | 0 W/m² | - |
| 1778138360 | 5° C | 75% | 1011 hPa | 0 mm | - | 0 W/m² | - |
| 1778138057 | 5° C | 75% | 1010.9 hPa | 0 mm | - | 0 W/m² | - |
| 1778137753 | 5° C | 76% | 1010.9 hPa | 0 mm | - | 0 W/m² | - |
| 1778137451 | 5° C | 75% | 1010.9 hPa | 0 mm | - | 0 W/m² | - |
| 1778137147 | 5° C | 77% | 1011.1 hPa | 0 mm | - | 0 W/m² | - |
| 1778136844 | 5° C | 80% | 1010.9 hPa | 0 mm | - | 0 W/m² | - |
| 1778136541 | 5° C | 80% | 1011 hPa | 0 mm | - | 0 W/m² | - |
| 1778136240 | 5° C | 77% | 1011.1 hPa | 0 mm | - | 0 W/m² | - |
| 1778135937 | 5° C | 77% | 1011.2 hPa | 0 mm | - | 0 W/m² | - |
| 1778135634 | 5° C | 76% | 1011 hPa | 0 mm | - | 0 W/m² | - |
| 1778135331 | 5.56° C | 77% | 1011.1 hPa | 0 mm | - | 0 W/m² | - |
| 1778135028 | 5.56° C | 77% | 1011.3 hPa | 0 mm | - | 0 W/m² | - |
| 1778134726 | 5.56° C | 77% | 1011.1 hPa | 0 mm | - | 0 W/m² | - |
| 1778134423 | 5.56° C | 76% | 1011 hPa | 0 mm | - | 0 W/m² | - |
| 1778134122 | 5.56° C | 76% | 1011 hPa | 0 mm | - | 0 W/m² | - |
| 1778133818 | 5.56° C | 77% | 1011 hPa | 0 mm | - | 0 W/m² | - |
| 1778133515 | 5.56° C | 78% | 1011 hPa | 0 mm | - | 0 W/m² | - |
| 1778133210 | 5.56° C | 78% | 1010.9 hPa | 0 mm | - | 0 W/m² | - |
| 1778132907 | 5.56° C | 78% | 1011.1 hPa | 0 mm | - | 0 W/m² | - |
* Rain latest hour (hover to see other rain measurements)
** Current wind speed in m/s (hover to see current wind gust speed)